User: anonymous   Login
Location: Unspecified
(0.0000°N, 0.0000°E)
Time: 23:28:55
(UTC+00:00)
Language:

NOAA 17 - Orbit

View from above orbital plane
View from above orbital plane
View from above satellite
View from above satellite

Ground track
Ground track

The orbit data is extracted from the following two-line orbital elements,

1 27453U 02032A   17112.93256210 +.00000010 +00000-0 +22006-4 0  9993
2 27453 098.4289 079.5926 0011908 007.7691 352.3671 14.24983153770887
Epoch (UTC): 22 April 2017 22:22:53
Eccentricity: 0.0011908
inclination: 98.4289°
perigee height: 800 km
apogee height: 817 km
right ascension of ascending node: 79.5926°
argument of perigee: 7.7691°
revolutions per day: 14.24983153
mean anomaly at epoch: 352.3671°
orbit number at epoch: 77088

The dashed part of the orbit path shows where the satellite is in the earth's shadow,  

DLR